GW7091 Weather Reports


time (UTC)temp
F
wind
direction
speed
knots
gust
knots
rain 1hr
in
rain 24hr
in
rain mn
in
humidity
%
barometer
mb
20260509022219 53 276 0.0 0.0 0.00 0.00 0.00 82 1043.9
20260509021715 53 276 0.0 0.0 0.00 0.00 0.00 79 1043.9
20260509021213 53 276 0.0 0.0 0.00 0.00 0.00 81 1043.9
20260509020711 53 276 0.0 0.0 0.00 0.00 0.00 82 1043.8
20260509020207 53 276 0.0 0.0 0.00 0.00 0.00 81 1043.8
20260509015706 53 276 0.0 0.0 0.00 0.00 0.00 74 1043.6
20260509015204 53 276 0.0 0.0 0.00 0.00 0.00 75 1043.8
20260509014700 53 276 0.0 0.0 0.00 0.00 0.00 81 1044.0
20260509014156 53 276 0.0 0.0 0.00 0.00 0.00 80 1043.9
20260509013653 53 276 0.0 0.0 0.00 0.00 0.00 76 1044.0
20260509013149 53 276 0.0 0.0 0.00 0.00 0.00 74 1043.9
20260509012646 53 276 0.0 0.0 0.00 0.00 0.00 72 1044.1
20260509012143 53 276 0.0 0.0 0.00 0.00 0.00 74 1043.9
20260509011641 54 276 0.0 0.0 0.00 0.00 0.00 74 1043.6
20260509011138 55 276 0.0 0.0 0.00 0.00 0.00 71 1043.8
20260509010635 56 276 0.0 0.0 0.00 0.00 0.00 69 1043.6
20260509010131 57 276 0.0 0.0 0.00 0.00 0.00 68 1043.4
20260509005630 58 276 0.0 0.0 0.00 0.00 0.00 68 1043.6
20260509005125 60 276 0.0 0.0 0.00 0.00 0.00 61 1043.5
20260509004621 61 276 0.0 0.0 0.00 0.00 0.00 60 1043.6
20260509004119 62 276 0.0 0.0 0.00 0.00 0.00 46 1043.6
20260509003617 64 276 0.0 0.0 0.00 0.00 0.00 44 1043.6
20260509003114 64 276 0.0 0.0 0.00 0.00 0.00 39 1043.7
20260509002611 65 276 0.0 0.9 0.00 0.00 0.00 42 1043.9
20260509002109 66 265 0.9 0.9 0.00 0.00 0.00 37 1043.8
20260509001606 66 260 0.0 0.9 0.00 0.00 0.00 36 1043.9
20260509001101 67 277 1.7 1.7 0.00 0.00 0.00 38 1043.9
20260509000600 67 261 1.7 5.2 0.00 0.00 0.00 36 1044.0
20260509000056 67 270 2.6 3.5 0.00 0.00 0.00 35 1043.8
20260508235554 67 237 3.5 5.2 0.00 0.00 0.00 34 1044.1
20260508235050 68 285 1.7 3.5 0.00 0.00 0.00 35 1044.3
20260508234548 68 283 0.9 3.5 0.00 0.00 0.00 34 1044.1
20260508234044 69 256 1.7 2.6 0.00 0.00 0.00 34 1044.1
20260508233543 69 290 1.7 3.5 0.00 0.00 0.00 34 1044.3
20260508233040 69 259 0.9 1.7 0.00 0.00 0.00 35 1044.4
20260508232537 69 240 1.7 7.0 0.00 0.00 0.00 35 1044.6
20260508232034 68 264 0.9 3.5 0.00 0.00 0.00 34 1044.4
20260508231532 68 214 1.7 6.1 0.00 0.00 0.00 35 1044.5
20260508231029 68 277 2.6 5.2 0.00 0.00 0.00 33 1044.3
20260508230525 69 216 2.6 5.2 0.00 0.00 0.00 34 1044.5
20260508230022 70 278 1.7 1.7 0.00 0.00 0.00 35 1044.5
20260508225519 71 161 1.7 2.6 0.00 0.00 0.00 33 1044.5
20260508225016 70 62 0.9 2.6 0.00 0.00 0.00 33 1044.2
20260508224514 71 235 0.9 2.6 0.00 0.00 0.00 33 1044.3
20260508224011 71 260 2.6 3.5 0.00 0.00 0.00 32 1044.2
20260508223509 71 243 1.7 5.2 0.00 0.00 0.00 32 1044.4
20260508223006 72 265 3.5 7.8 0.00 0.00 0.00 31 1044.1
20260508222503 72 251 0.9 5.2 0.00 0.00 0.00 33 1044.3
20260508221959 71 292 2.6 3.5 0.00 0.00 0.00 31 1044.3
20260508221456 72 220 3.5 6.1 0.00 0.00 0.00 31 1044.1
20260508220952 72 297 0.9 2.6 0.00 0.00 0.00 33 1044.2
20260508220448 71 299 0.9 7.0 0.00 0.00 0.00 31 1044.0
20260508215945 71 234 3.5 8.7 0.00 0.00 0.00 31 1044.3
20260508215442 72 268 2.6 8.7 0.00 0.00 0.00 33 1044.4
20260508214938 72 237 1.7 3.5 0.00 0.00 0.00 31 1044.4
20260508214437 72 227 0.0 5.2 0.00 0.00 0.00 34 1044.0
20260508213932 71 235 1.7 2.6 0.00 0.00 0.00 32 1044.2
20260508213430 72 300 2.6 5.2 0.00 0.00 0.00 31 1043.9
20260508212925 72 253 0.9 3.5 0.00 0.00 0.00 30 1043.8
20260508212422 72 312 1.7 5.2 0.00 0.00 0.00 32 1044.0
20260508211918 72 235 0.9 2.6 0.00 0.00 0.00 33 1044.2
20260508211414 72 303 4.3 6.1 0.00 0.00 0.00 29 1044.4
20260508210911 73 293 1.7 5.2 0.00 0.00 0.00 33 1044.4
20260508210408 73 309 3.5 5.2 0.00 0.00 0.00 29 1044.7
20260508205904 73 303 1.7 6.1 0.00 0.00 0.00 34 1044.8
20260508205401 73 262 1.7 2.6 0.00 0.00 0.00 35 1044.6
20260508204857 72 292 0.0 3.5 0.00 0.00 0.00 38 1044.8
20260508204354 72 199 4.3 6.1 0.00 0.00 0.00 31 1044.9
20260508203850 73 239 5.2 7.0 0.00 0.00 0.00 31 1045.0
20260508203346 73 186 1.7 6.1 0.00 0.00 0.00 34 1045.1
20260508202842 73 230 0.9 6.1 0.00 0.00 0.00 34 1045.3
20260508202340 72 283 0.9 2.6 0.00 0.00 0.00 35 1045.5
20260508201837 72 225 6.1 8.7 0.00 0.00 0.00 34 1045.4
20260508201334 72 314 3.5 7.0 0.00 0.00 0.00 33 1045.5
20260508200830 71 298 1.7 5.2 0.00 0.00 0.00 35 1045.4
20260508200327 71 202 6.1 11.3 0.00 0.00 0.00 33 1045.3
20260508195822 71 270 2.6 7.8 0.00 0.00 0.00 35 1045.7
20260508195320 71 237 1.7 2.6 0.00 0.00 0.00 35 1045.3
20260508194816 71 287 7.8 9.6 0.00 0.00 0.00 30 1045.3
20260508194313 71 235 6.1 7.0 0.00 0.00 0.00 32 1045.5
20260508193810 71 281 4.3 8.7 0.00 0.00 0.00 34 1045.7
20260508193307 71 264 2.6 8.7 0.00 0.00 0.00 33 1045.3
20260508192803 71 173 3.5 5.2 0.00 0.00 0.00 35 1045.4
20260508192300 71 61 2.6 2.6 0.00 0.00 0.00 31 1045.5
20260508191757 71 262 4.3 12.2 0.00 0.00 0.00 31 1045.7
20260508191254 71 160 1.7 5.2 0.00 0.00 0.00 33 1045.7
20260508190752 70 344 2.6 7.0 0.00 0.00 0.00 37 1045.7
20260508190247 70 242 0.9 7.8 0.00 0.00 0.00 38 1045.9
20260508185744 70 199 6.1 8.7 0.00 0.00 0.00 31 1045.9
20260508185242 70 181 5.2 7.0 0.00 0.00 0.00 33 1046.0
20260508184738 70 145 2.6 7.0 0.00 0.00 0.00 35 1046.3
20260508184236 71 205 4.3 6.1 0.00 0.00 0.00 34 1046.0
20260508183732 70 256 2.6 6.1 0.00 0.00 0.00 38 1046.2
20260508183229 70 263 3.5 6.1 0.00 0.00 0.00 34 1046.0
20260508182725 70 323 4.3 6.1 0.00 0.00 0.00 31 1046.2
20260508182222 69 249 1.7 7.0 0.00 0.00 0.00 36 1046.5
20260508181718 70 244 2.6 7.8 0.00 0.00 0.00 32 1046.9
20260508181215 69 252 2.6 5.2 0.00 0.00 0.00 39 1046.8
20260508180711 69 262 3.5 9.6 0.00 0.00 0.00 37 1047.3
20260508180208 70 206 2.6 7.0 0.00 0.00 0.00 36 1047.1
20260508175705 70 325 1.7 3.5 0.00 0.00 0.00 36 1047.1
20260508175201 70 291 2.6 5.2 0.00 0.00 0.00 41 1047.6
20260508174659 70 181 2.6 5.2 0.00 0.00 0.00 36 1047.3
20260508174155 69 231 4.3 6.1 0.00 0.00 0.00 37 1047.7
20260508173653 69 245 0.9 2.6 0.00 0.00 0.00 40 1047.9
20260508173148 69 300 1.7 5.2 0.00 0.00 0.00 37 1047.6
20260508172646 69 255 5.2 7.8 0.00 0.00 0.00 35 1047.9
20260508172143 69 269 3.5 5.2 0.00 0.00 0.00 36 1048.0
20260508171639 69 239 0.9 2.6 0.00 0.00 0.00 39 1048.0
20260508171136 69 275 1.7 5.2 0.00 0.00 0.00 41 1048.2
20260508170633 69 241 2.6 5.2 0.00 0.00 0.00 38 1048.2
20260508170130 68 278 1.7 2.6 0.00 0.00 0.00 41 1048.4
20260508165627 68 299 0.9 5.2 0.00 0.00 0.00 38 1048.4
20260508165124 68 233 6.1 8.7 0.00 0.00 0.00 36 1048.4
20260508164620 69 244 4.3 5.2 0.00 0.00 0.00 37 1048.5
20260508164118 68 210 1.7 3.5 0.00 0.00 0.00 40 1048.6
20260508163615 68 322 0.0 3.5 0.00 0.00 0.00 37 1048.9
20260508163112 68 239 0.0 3.5 0.00 0.00 0.00 40 1049.0
20260508162608 67 252 1.7 5.2 0.00 0.00 0.00 44 1048.8
20260508162106 67 209 3.5 5.2 0.00 0.00 0.00 39 1049.0
20260508161602 66 210 4.3 7.0 0.00 0.00 0.00 38 1049.0
20260508161100 67 226 7.8 7.8 0.00 0.00 0.00 36 1049.2
20260508160558 67 244 5.2 7.8 0.00 0.00 0.00 38 1049.1
20260508160055 66 203 2.6 7.8 0.00 0.00 0.00 37 1049.5
20260508155552 66 283 0.9 5.2 0.00 0.00 0.00 39 1049.3
20260508155049 66 307 3.5 5.2 0.00 0.00 0.00 37 1049.3
20260508154546 66 217 2.6 5.2 0.00 0.00 0.00 37 1049.6
20260508154043 66 284 2.6 3.5 0.00 0.00 0.00 41 1049.5
20260508153539 65 193 4.3 5.2 0.00 0.00 0.00 36 1049.9
20260508153036 66 269 5.2 6.1 0.00 0.00 0.00 39 1049.7
20260508152533 65 312 0.9 5.2 0.00 0.00 0.00 45 1049.7
20260508152028 65 246 3.5 7.0 0.00 0.00 0.00 39 1049.6
20260508151525 65 218 0.9 3.5 0.00 0.00 0.00 41 1050.0
20260508151022 65 220 1.7 3.5 0.00 0.00 0.00 45 1049.7
20260508150519 65 266 2.6 7.0 0.00 0.00 0.00 41 1049.8
20260508150015 65 218 0.9 6.1 0.00 0.00 0.00 42 1049.7
20260508145512 65 248 2.6 7.0 0.00 0.00 0.00 42 1049.8
20260508145008 65 216 3.5 3.5 0.00 0.00 0.00 41 1049.8
20260508144506 64 272 1.7 6.1 0.00 0.00 0.00 42 1049.8
20260508144003 65 233 4.3 6.1 0.00 0.00 0.00 41 1049.8
20260508143500 65 316 1.7 2.6 0.00 0.00 0.00 46 1049.9
20260508142956 64 231 1.7 2.6 0.00 0.00 0.00 43 1049.8
20260508142454 64 263 1.7 2.6 0.00 0.00 0.00 42 1049.9
20260508141950 63 211 0.9 2.6 0.00 0.00 0.00 43 1050.0
20260508141447 63 280 0.9 2.6 0.00 0.00 0.00 45 1049.9
20260508140945 63 308 1.7 2.6 0.00 0.00 0.00 51 1049.9
20260508140442 62 282 1.7 3.5 0.00 0.00 0.00 49 1049.8
20260508135937 62 259 1.7 2.6 0.00 0.00 0.00 50 1050.0
20260508135434 61 225 2.6 3.5 0.00 0.00 0.00 48 1050.0
20260508134930 61 230 1.7 5.2 0.00 0.00 0.00 53 1049.8
20260508134427 61 213 2.6 5.2 0.00 0.00 0.00 48 1049.9
20260508133924 60 226 1.7 1.7 0.00 0.00 0.00 55 1050.0
20260508133421 59 247 1.7 2.6 0.00 0.00 0.00 57 1050.2
20260508132918 58 182 0.9 2.6 0.00 0.00 0.00 64 1050.1
20260508132416 58 312 1.7 2.6 0.00 0.00 0.00 58 1050.0
20260508131913 58 215 0.9 3.5 0.00 0.00 0.00 62 1050.1
20260508131408 57 191 1.7 2.6 0.00 0.00 0.00 63 1049.8
20260508130905 56 215 0.9 1.7 0.00 0.00 0.00 64 1049.9
20260508130402 56 200 1.7 1.7 0.00 0.00 0.00 64 1049.7
20260508125858 55 199 0.9 0.9 0.00 0.00 0.00 68 1050.0
20260508125354 54 152 0.9 0.9 0.00 0.00 0.00 68 1049.7
20260508124852 53 210 0.9 0.9 0.00 0.00 0.00 71 1050.1
20260508124349 54 204 0.9 0.9 0.00 0.00 0.00 69 1049.9
20260508123847 53 202 0.0 0.0 0.00 0.00 0.00 74 1050.1
20260508123345 51 204 0.9 0.9 0.00 0.00 0.00 75 1049.7
20260508122841 51 205 0.9 0.9 0.00 0.00 0.00 77 1049.6
20260508122338 50 216 0.0 0.0 0.00 0.00 0.00 78 1049.9
20260508121835 48 216 0.0 0.0 0.00 0.00 0.00 82 1050.0
20260508121334 48 216 0.9 0.9 0.00 0.00 0.00 80 1049.9
20260508120831 49 216 0.0 0.0 0.00 0.00 0.00 78 1050.0
20260508120329 48 216 0.0 0.0 0.00 0.00 0.00 84 1049.8
20260508115826 46 216 0.0 0.0 0.00 0.00 0.00 90 1050.0
20260508115324 46 216 0.0 0.0 0.00 0.00 0.00 93 1049.8
20260508114820 44 216 0.0 0.0 0.00 0.00 0.00 97 1050.0
20260508114317 42 216 0.0 0.0 0.00 0.00 0.00 97 1049.8
20260508113813 42 216 0.0 0.0 0.00 0.00 0.00 97 1049.6
20260508113312 41 216 0.0 0.0 0.00 0.00 0.00 98 1049.7
20260508112808 40 216 0.0 0.0 0.00 0.00 0.00 98 1049.5
20260508112307 38 216 0.0 0.0 0.00 0.00 0.00 98 1049.5
20260508111801 38 216 0.0 0.0 0.00 0.00 0.00 98 1049.4
20260508111259 37 216 0.0 0.0 0.00 0.00 0.00 98 1049.5
20260508110756 35 216 0.0 0.0 0.00 0.00 0.00 98 1049.4
20260508110253 35 216 0.0 0.0 0.00 0.00 0.00 98 1049.3
20260508105753 34 216 0.0 0.0 0.00 0.00 0.00 97 1049.3
20260508105250 35 216 0.0 0.0 0.00 0.00 0.00 97 1049.5
20260508104747 35 216 0.0 0.0 0.00 0.00 0.00 98 1049.1
20260508104244 34 216 0.0 0.0 0.00 0.00 0.00 98 1049.1
20260508103742 34 216 0.0 0.0 0.00 0.00 0.00 98 1049.1
20260508103238 34 216 0.0 0.0 0.00 0.00 0.00 97 1049.1
20260508102735 34 216 0.0 0.0 0.00 0.00 0.00 97 1049.1
20260508102234 34 216 0.0 0.0 0.00 0.00 0.00 97 1048.8
20260508101730 34 216 0.0 0.0 0.00 0.00 0.00 97 1048.9
20260508101228 34 216 0.0 0.0 0.00 0.00 0.00 97 1048.9
20260508100726 34 216 0.0 0.0 0.00 0.00 0.00 97 1049.0
20260508100224 34 216 0.0 0.0 0.00 0.00 0.00 97 1048.9
20260508095719 34 216 0.0 0.0 0.00 0.00 0.00 97 1048.7
20260508095217 34 216 0.0 0.0 0.00 0.00 0.00 97 1048.9
20260508094713 34 216 0.0 0.0 0.00 0.00 0.00 97 1049.0
20260508094210 34 216 0.0 0.0 0.00 0.00 0.00 97 1049.0
20260508093707 34 216 0.0 0.0 0.00 0.00 0.00 97 1048.8
20260508093206 34 216 0.0 0.0 0.00 0.00 0.00 97 1049.1
20260508092702 34 216 0.0 0.0 0.00 0.00 0.00 97 1048.9
20260508092201 34 216 0.0 0.0 0.00 0.00 0.00 97 1049.0
20260508091658 34 216 0.0 0.0 0.00 0.00 0.00 97 1049.1
20260508091155 34 216 0.0 0.0 0.00 0.00 0.00 97 1049.2
20260508090652 34 216 0.0 0.0 0.00 0.00 0.00 97 1049.2
20260508090150 34 216 0.0 0.0 0.00 0.00 0.00 97 1048.9
20260508085645 34 216 0.0 0.0 0.00 0.00 0.00 97 1049.2
20260508085143 34 216 0.0 0.0 0.00 0.00 0.00 97 1049.2
20260508084639 35 216 0.0 0.0 0.00 0.00 0.00 97 1049.1
20260508084136 34 216 0.0 0.0 0.00 0.00 0.00 97 1049.0
20260508083634 34 216 0.0 0.0 0.00 0.00 0.00 97 1049.1
20260508083131 34 216 0.0 0.0 0.00 0.00 0.00 97 1049.3
20260508082626 35 216 0.0 0.0 0.00 0.00 0.00 97 1049.0
20260508082124 35 216 0.0 0.0 0.00 0.00 0.00 97 1049.3
20260508081621 35 216 0.0 0.0 0.00 0.00 0.00 97 1049.4
20260508081118 35 216 0.0 0.0 0.00 0.00 0.00 97 1049.1
20260508080615 35 216 0.0 0.0 0.00 0.00 0.00 97 1049.0
20260508080113 35 216 0.0 0.0 0.00 0.00 0.00 97 1049.1
20260508075609 35 216 0.0 0.0 0.00 0.00 0.00 97 1049.0
20260508075106 35 216 0.0 0.0 0.00 0.00 0.00 97 1049.2
20260508074604 35 216 0.0 0.0 0.00 0.00 0.00 97 1049.1
20260508074101 35 216 0.0 0.0 0.00 0.00 0.00 97 1049.0
20260508073558 35 216 0.0 0.0 0.00 0.00 0.00 97 1049.3
20260508073056 35 216 0.0 0.0 0.00 0.00 0.00 97 1049.1
20260508072551 35 216 0.0 0.0 0.00 0.00 0.00 97 1049.0
20260508072048 35 216 0.0 0.0 0.00 0.00 0.00 97 1048.9
20260508071546 35 216 0.0 0.0 0.00 0.00 0.00 96 1049.2
20260508071044 35 216 0.0 0.0 0.00 0.00 0.00 96 1049.0
20260508070541 35 216 0.0 0.0 0.00 0.00 0.00 96 1049.0
20260508070040 35 216 0.0 0.9 0.00 0.00 0.00 96 1049.0
20260508065537 35 216 0.0 0.0 0.00 0.00 0.00 96 1049.2
20260508065035 35 216 0.0 0.0 0.00 0.00 0.00 96 1049.1
20260508064532 35 216 0.0 0.0 0.00 0.00 0.00 96 1049.1
20260508064030 35 216 0.0 0.0 0.00 0.00 0.00 96 1049.4
20260508063527 36 216 0.0 0.0 0.00 0.00 0.00 96 1049.2
20260508063025 36 216 0.0 0.0 0.00 0.00 0.00 96 1049.3
20260508062522 36 216 0.0 0.0 0.00 0.00 0.00 96 1049.3
20260508062019 36 216 0.0 0.0 0.00 0.00 0.00 96 1049.1
20260508061517 37 216 0.0 0.0 0.00 0.00 0.00 96 1049.2
20260508061013 37 216 0.0 0.0 0.00 0.00 0.00 96 1049.1
20260508060510 37 216 0.0 0.0 0.00 0.00 0.00 96 1049.3
20260508060008 37 221 0.9 0.9 0.00 0.00 0.00 96 1049.3
20260508055503 37 235 0.0 0.9 0.00 0.00 0.00 96 1049.6
20260508055000 37 19 0.0 0.0 0.00 0.00 0.00 96 1049.4
20260508054457 37 19 0.0 0.0 0.00 0.00 0.00 96 1049.5
20260508053953 37 19 0.0 0.0 0.00 0.00 0.00 96 1049.6
20260508053450 36 19 0.0 0.0 0.00 0.00 0.00 96 1049.4
20260508052949 36 19 0.0 0.0 0.00 0.00 0.00 96 1049.4
20260508052446 37 19 0.0 0.0 0.00 0.00 0.00 96 1049.6
20260508051942 37 19 0.0 0.0 0.00 0.00 0.00 95 1049.6
20260508051438 37 19 0.0 0.0 0.00 0.00 0.00 95 1049.3
20260508050934 37 19 0.0 0.0 0.00 0.00 0.00 96 1049.4
20260508050431 37 19 0.0 0.0 0.00 0.00 0.00 96 1049.6
20260508045927 37 19 0.0 0.0 0.00 0.00 0.00 95 1049.6
20260508045425 37 19 0.0 0.0 0.00 0.00 0.00 95 1049.6
20260508044922 38 19 0.0 0.0 0.00 0.00 0.00 95 1049.6
20260508044419 38 19 0.0 0.0 0.00 0.00 0.00 96 1049.2
20260508043914 37 19 0.0 0.0 0.00 0.00 0.00 95 1049.2
20260508043412 37 19 0.0 0.0 0.00 0.00 0.00 95 1049.3
20260508042908 38 19 0.0 0.0 0.00 0.00 0.00 95 1049.3
20260508042406 38 19 0.0 0.0 0.00 0.00 0.00 95 1049.3
20260508041903 38 19 0.0 0.0 0.00 0.00 0.00 95 1049.2
20260508041359 38 19 0.0 0.0 0.00 0.00 0.00 95 1049.1
20260508040855 38 19 0.0 0.0 0.00 0.00 0.00 95 1049.3
20260508040353 38 19 0.0 0.0 0.00 0.00 0.00 95 1049.3
20260508035851 38 19 0.0 0.0 0.00 0.00 0.00 95 1049.2
20260508035348 38 19 0.0 0.0 0.00 0.00 0.00 94 1049.2
20260508034844 39 19 0.0 0.0 0.00 0.00 0.00 94 1049.1
20260508034342 39 19 0.0 0.0 0.00 0.00 0.00 94 1049.3
20260508033838 39 19 0.0 0.0 0.00 0.00 0.00 94 1049.3
20260508033337 39 19 0.0 0.0 0.00 0.00 0.00 94 1049.6
20260508032834 39 19 0.0 0.0 0.00 0.00 0.00 94 1049.3
20260508032331 39 19 0.0 0.0 0.00 0.00 0.00 94 1049.3
20260508031827 39 19 0.0 0.0 0.00 0.00 0.00 94 1049.5
20260508031324 39 19 0.0 0.0 0.00 0.00 0.00 93 1049.4
20260508030821 39 19 0.0 0.0 0.00 0.00 0.00 93 1049.3
20260508030318 40 19 0.0 0.0 0.00 0.00 0.00 93 1049.5
20260508025814 40 19 0.0 0.0 0.00 0.00 0.00 93 1049.3
20260508025312 40 19 0.0 0.0 0.00 0.00 0.00 93 1049.3
20260508024808 40 19 0.0 0.0 0.00 0.00 0.00 93 1049.2
20260508024305 40 19 0.0 0.0 0.00 0.00 0.00 92 1049.3
20260508023802 40 19 0.0 0.0 0.00 0.00 0.00 92 1049.3
20260508023259 40 19 0.0 0.0 0.00 0.00 0.00 92 1049.2
20260508022754 41 19 0.0 0.0 0.00 0.00 0.00 91 1049.1